This is the latest recevied weather packets stored in our database for station/object SV1TQE-1. If no packets are shown the sender has not sent any weather packets the latest 10 day(s).
| Time | Temp. | Humidity | Pressure | Rain* | Wind** | Luminosity | Snow |
|---|---|---|---|---|---|---|---|
| 1787908992 | 39.44° C | 41% | 1020 hPa | - | - | - | - |
| 1787908092 | 38.89° C | 42% | 1020.1 hPa | - | - | - | - |
| 1787907194 | 38.89° C | 44% | 1020.2 hPa | - | - | - | - |
| 1787906292 | 38.33° C | 47% | 1020.3 hPa | - | - | - | - |
| 1787905392 | 36.67° C | 51% | 1020.3 hPa | - | - | - | - |
| 1787904492 | 37.22° C | 52% | 1019.9 hPa | - | - | - | - |
| 1787903570 | 36.67° C | 50% | 1020.2 hPa | - | - | - | - |
| 1787901770 | 36.67° C | 53% | 1020 hPa | - | - | - | - |
| 1787900870 | 35.56° C | 56% | 1019.5 hPa | - | - | - | - |
| 1787899976 | 35.56° C | 56% | 1019.8 hPa | - | - | - | - |
| 1787899048 | 35° C | 57% | 1019.9 hPa | - | - | - | - |
| 1787898125 | 34.44° C | 57% | 1020 hPa | - | - | - | - |
| 1787897225 | 33.89° C | 58% | 1020 hPa | - | - | - | - |
| 1787896325 | 33.33° C | 59% | 1019.9 hPa | - | - | - | - |
| 1787895425 | 33.33° C | 60% | 1019.8 hPa | - | - | - | - |
| 1787894524 | 32.78° C | 63% | 1019.7 hPa | - | - | - | - |
| 1787893624 | 32.22° C | 65% | 1019.6 hPa | - | - | - | - |
| 1787892724 | 31.11° C | 69% | 1019.7 hPa | - | - | - | - |
| 1787891824 | 29.44° C | 73% | 1019.6 hPa | - | - | - | - |
| 1787890924 | 28.33° C | 79% | 1019.6 hPa | - | - | - | - |
| 1787890024 | 27.78° C | 85% | 1019.6 hPa | - | - | - | - |
| 1787889124 | 27.78° C | 86% | 1019.5 hPa | - | - | - | - |
| 1787888223 | 27.78° C | 86% | 1019.5 hPa | - | - | - | - |
| 1787887323 | 27.78° C | 90% | 1019.6 hPa | - | - | - | - |
| 1787886423 | 27.78° C | 90% | 1019.6 hPa | - | - | - | - |
* Rain since midnight (hover to see other rain measurements)
** Current wind speed in m/s (hover to see current wind gust speed)